This is the latest recevied weather packets stored in our database for station/object G4ZMG. If no packets are shown the sender has not sent any weather packets the latest 10 day(s).
| Time | Temp. | Humidity | Pressure | Rain* | Wind** | Luminosity | Snow |
|---|---|---|---|---|---|---|---|
| 1777137608 | 20° C | 27% | 1019.4 hPa | 0 mm | - | 294 W/m² | - |
| 1777137005 | 20.56° C | 24% | 1019.3 hPa | 0 mm | - | 327 W/m² | - |
| 1777136406 | 20.56° C | 23% | 1019.1 hPa | 0 mm | - | 355 W/m² | - |
| 1777135805 | 21.11° C | 23% | 1019.1 hPa | 0 mm | - | 383 W/m² | - |
| 1777135204 | 21.11° C | 26% | 1019.2 hPa | 0 mm | - | 413 W/m² | - |
| 1777134605 | 21.11° C | 24% | 1019 hPa | 0 mm | - | 439 W/m² | - |
| 1777134005 | 21.11° C | 25% | 1019 hPa | 0 mm | - | 464 W/m² | - |
| 1777133405 | 21.11° C | 24% | 1019 hPa | 0 mm | - | 492 W/m² | - |
| 1777132806 | 20.56° C | 24% | 1019 hPa | 0 mm | - | 513 W/m² | - |
| 1777132204 | 20.56° C | 23% | 1019 hPa | 0 mm | - | 540 W/m² | - |
| 1777131605 | 21.11° C | 24% | 1019.1 hPa | 0 mm | - | 566 W/m² | - |
| 1777131004 | 21.11° C | 25% | 1019 hPa | 0 mm | - | 589 W/m² | - |
| 1777130405 | 21.11° C | 24% | 1019.1 hPa | 0 mm | - | 610 W/m² | - |
| 1777129805 | 20.56° C | 24% | 1019.2 hPa | 0 mm | - | 631 W/m² | - |
| 1777129207 | 21.11° C | 26% | 1019.3 hPa | 0 mm | - | 652 W/m² | - |
| 1777128605 | 20° C | 27% | 1019.2 hPa | 0 mm | - | 675 W/m² | - |
| 1777128004 | 20.56° C | 24% | 1019.2 hPa | 0 mm | - | 691 W/m² | - |
| 1777127404 | 20.56° C | 24% | 1019.4 hPa | 0 mm | - | 707 W/m² | - |
| 1777126805 | 20.56° C | 26% | 1019.3 hPa | 0 mm | - | 722 W/m² | - |
| 1777126204 | 20.56° C | 25% | 1019.4 hPa | 0 mm | - | 738 W/m² | - |
| 1777125608 | 20.56° C | 26% | 1019.4 hPa | 0 mm | - | 751 W/m² | - |
| 1777125005 | 20° C | 24% | 1019.4 hPa | 0 mm | - | 765 W/m² | - |
| 1777124405 | 20.56° C | 26% | 1019.4 hPa | 0 mm | - | 779 W/m² | - |
| 1777123805 | 20° C | 28% | 1019.5 hPa | 0 mm | - | 786 W/m² | - |
| 1777123206 | 20° C | 27% | 1019.5 hPa | 0 mm | - | 796 W/m² | - |
* Rain latest hour (hover to see other rain measurements)
** Current wind speed in m/s (hover to see current wind gust speed)